Location: Trani
(41.2830°N, 16.4170°E)
Time: 03:07:00
(UTC+02:00)

ISS - Pass Details

Date: 12 May 2021
Orbit: 417 x 422 km, 51.6° (Epoch: 14 June)

Event Time Altitude Azimuth Distance (km) Brightness Sun altitude
Rises 04:26:16 0° 309° (NW) 2,374 -0.1 -12.4°
Reaches altitude 10° 04:28:30 10° 319° (NW) 1,508 -1.0 -12.1°
Maximum altitude 04:31:38 34° 27° (NNE) 711 -2.0 -11.6°
Drops below altitude 10° 04:34:46 10° 94° (E) 1,504 -0.2 -11.2°
Sets 04:36:58 0° 104° (ESE) 2,367 0.7 -10.8°
